Regional Weather Roundup
Issued by NWS

Home | Current Version | Previous Version | Graphics & Text | Print | Product List | Glossary On
Versions: 1 2 3 4 5 6 7 8 9 10 11 12 13 14 15 16 17 18 19 20 21 22 23 24 25 26 27 28 29 30 31 32 33 34 35 36 37 38 39 40 41 42 43 44 45 46 47 48 49 50
664
ASUS43 KLMK 232102
RWRKY
KENTUCKY REGIONAL WEATHER ROUNDUP
NATIONAL WEATHER SERVICE LOUISVILLE KY
500 PM EDT TUE AUG 23 2016

NOTE "FAIR" INDICATES FEW OR NO CLOUDS BELOW 12,000 FEET
WITH NO SIGNIFICANT WEATHER AND/OR OBSTRUCTIONS TO VISIBILITY.

KYZ001>023-026-027-061>063-070>075-232200-
WESTERN AND SOUTH CENTRAL KENTUCKY

CITY           SKY/WX    TMP DP  RH WIND       PRES   REMARKS
PADUCAH        CLOUDY    81  70  69 S7        30.17F
HENDERSON      CLOUDY    81  64  57 S3        30.18F
OWENSBORO      PTSUNNY   83  65  54 W3        30.20F
HOPKINSVILLE   PTSUNNY   82  70  65 S6        30.20F
BOWLING GREEN  PTSUNNY   84  63  49 NW6       30.21S
GLASGOW        SUNNY     82  63  53 SW7       30.22S
$$

KYZ024-025-028>034-038-045-046-053-232200-
NORTH CENTRAL KENTUCKY

CITY           SKY/WX    TMP DP  RH WIND       PRES   REMARKS
LOUISVILLE/SDF PTSUNNY   84  57  39 S9        30.20F
LOUISVILLE/LOU CLOUDY    83  58  42 S8        30.21F
FORT KNOX      PTSUNNY   81  62  52 VRB5      30.20F
$$

KYZ035>037-039>044-047>052-055>060-089>105-232200-
NORTHEAST KENTUCKY

CITY           SKY/WX    TMP DP  RH WIND       PRES   REMARKS
LEXINGTON      SUNNY     82  59  45 CALM      30.24F
COVINGTON      PTSUNNY   81  60  48 S7        30.23S
FRANKFORT      SUNNY     83  59  44 SE6       30.22F
$$

KYZ054-064>069-076>088-106>120-232200-
SOUTHEAST KENTUCKY

CITY           SKY/WX    TMP DP  RH WIND       PRES   REMARKS
JACKSON        SUNNY     81  58  45 CALM      30.26F
LONDON         MOSUNNY   82  57  42 VRB5      30.25F
SOMERSET       SUNNY     82  59  44 CALM      30.24F
MIDDLESBORO    SUNNY     83  57  41 S5        30.24F
MONTICELLO     PTCLDY   N/A N/A N/A VRB5      30.24F
$$





USA.gov is the U.S. government's official web portal to all federal, state and local government web resources and services.